This demonstration page uses our WeatherBlox Daily Observations layout. Learn more.

Left ArrowRight Arrow

Hourly Observations for April 16, 2015

Temp ( °F °C ) Dew Point ( °F °C ) Humidity (%) Winds ( mph kmh ) Pressure ( in mb ) Visibility ( mi km ) Precip ( " mm )
12:53 am 00:53 Clear 27 -2.8 23 -5 85 85 SW 3 6 30.26 1025 10 16 N/A
1:53 am 01:53 Clear 29 -1.7 23 -5 78 78 SSW 8 13 30.26 1025 10 16 N/A
2:53 am 02:53 Clear 27 -2.8 22 -5.6 81 81 WSW 6 9 30.26 1025 10 16 N/A
3:53 am 03:53 Clear 27 -2.8 23 -5 85 85 W 5 7 30.25 1025 10 16 N/A
4:53 am 04:53 Clear 28 -2.2 23 -5 81 81 W 3 6 30.25 1025 10 16 N/A
5:53 am 05:53 Clear 30 -1.1 25 -3.9 82 82 WNW 7 11 30.27 1025 10 16 N/A
6:53 am 06:53 Sunny 30 -1.1 26 -3.3 85 85 WSW 7 11 30.29 1026 10 16 N/A
7:53 am 07:53 Sunny 35 1.7 29 -1.7 78 78 WSW 9 15 30.29 1026 10 16 N/A
8:53 am 08:53 Sunny 43 6.1 30 -1.1 60 60 WSW 20 31 30.30 1026 10 16 N/A
9:53 am 09:53 Sunny 48 8.9 29 -1.7 48 48 SW 17 28 30.29 1026 10 16 N/A
10:53 am 10:53 Sunny 52 11.1 28 -2.2 40 40 SW 18 30 30.28 1025 10 16 N/A
11:53 am 11:53 Sunny 55 12.8 29 -1.7 37 37 SW 16 26 30.27 1025 10 16 N/A
12:53 pm 12:53 Sunny 59 15 30 -1.1 33 33 WSW 14 22 30.24 1024 10 16 N/A
1:53 pm 13:53 Sunny 61 16.1 29 -1.7 30 30 WSW 15 24 30.22 1023 10 16 N/A
2:53 pm 14:53 Sunny 62 16.7 28 -2.2 28 28 SSW 12 19 30.19 1022 10 16 N/A
3:53 pm 15:53 Sunny 64 17.8 27 -2.8 25 25 SW 14 22 30.17 1022 10 16 N/A
4:53 pm 16:53 Sunny 64 17.8 26 -3.3 24 24 SW 13 20 30.15 1021 10 16 N/A
5:53 pm 17:53 Sunny 64 17.8 27 -2.8 25 25 SSW 13 20 30.13 1020 10 16 N/A
6:53 pm 18:53 Sunny 62 16.7 27 -2.8 26 26 SSW 13 20 30.13 1020 10 16 N/A
7:53 pm 19:53 Sunny 54 12.2 27 -2.8 35 35 SSW 9 15 30.12 1020 10 16 N/A
8:53 pm 20:53 Clear 44 6.7 30 -1.1 58 58 SSE 9 15 30.14 1021 10 16 N/A
9:53 pm 21:53 Clear 45 7.2 30 -1.1 56 56 N N/A 30.13 1020 10 16 N/A
10:53 pm 22:53 Clear 44 6.7 29 -1.7 55 55 S 6 9 30.13 1020 10 16 N/A
11:53 pm 23:53 Clear 42 5.6 29 -1.7 60 60 SSW 5 7 30.13 1020 10 16 N/A

Powered by AerisWeather